Eastover, SC

6:47 PM EST on November 21, 2017 (GMT -0500)
McEntire Angs

Weather History for KMMT - May, 2014

Change the Weather History Date:

Saturday, May 3, 2014

  Actual Average Record
Temperature  
Mean Temperature 62 °F -  
Max Temperature 77 °F 76 °F 89 °F (2007)
Min Temperature 48 °F 57 °F 46 °F (2015)
Degree Days  
Heating Degree Days 2    
Growing Degree Days 12 (Base 50)    
Moisture  
Dew Point 47 °F    
Average Humidity 62    
Maximum Humidity 99    
Minimum Humidity 28    
Precipitation  
Precipitation 0.00 in - - ()
Sea Level Pressure  
Sea Level Pressure 29.94 in    
Wind  
Wind Speed 3 mph (West)    
Max Wind Speed 10 mph    
Max Gust Speed 18 mph    
Visibility 10 miles    
Events Fog    
Averages and records for this station are not official NWS values.
T = Trace of Precipitation, MM = Missing Value Source: NWS Daily Summary

Daily Weather History Graph

Daily Weather History Graph

Search for Another Location

Airport or City:

Trip Planner

Search our weather history database for the weather conditions in past years. The results will help you decide how hot, cold, wet, or windy it might be!

Date:

Astronomy

May. 03, 2014 Rise Set
Actual Time 6:32 AM EDT 8:08 PM EDT
Civil Twilight 6:05 AM EDT 8:35 PM EDT
Nautical Twilight 5:33 AM EDT 9:07 PM EDT
Astronomical Twilight 4:59 AM EDT 9:41 PM EDT
Moon 10:02 AM EDT (5/3) No Moon Set
Length of Visible Light 14h 29m
Length of Day
13h 36m
Waxing Crescent, 19% of the Moon is Illuminated
May 3
Waxing Crescent
May 6
First Quarter
May 14
Full
May 21
Last Quarter
May 28
New

Hourly Weather History & Observations

Time (EDT) Temp. Dew Point Humidity Pressure Visibility Wind Dir Wind Speed Gust Speed Precip Events Conditions
12:58 AM 54.3 °F 54.0 °F 99% 29.91 in 10.0 mi SE 2.3 mph - N/A   Partly Cloudy
1:58 AM 52.7 °F 52.5 °F 99% 29.90 in 10.0 mi Calm Calm - N/A   Clear
2:58 AM 51.8 °F 51.4 °F 99% 29.90 in 10.0 mi South 1.2 mph - N/A   Partly Cloudy
3:58 AM 50.5 °F 50.4 °F 99% 29.92 in 4.0 mi SSE 2.3 mph - N/A   Scattered Clouds
4:58 AM 52.2 °F 50.9 °F 95% 29.92 in 10.0 mi Calm Calm - N/A   Partly Cloudy
5:58 AM 51.4 °F 50.9 °F 98% 29.93 in 10.0 mi Calm Calm - N/A Fog Shallow Fog
6:58 AM 48.9 °F 48.7 °F 99% 29.94 in 10.0 mi NW 1.2 mph - N/A Fog Shallow Fog
7:58 AM 54.9 °F 52.2 °F 91% 29.94 in 10.0 mi West 2.3 mph - N/A   Partly Cloudy
8:58 AM 60.8 °F 51.6 °F 72% 29.95 in 10.0 mi WNW 6.9 mph - N/A   Partly Cloudy
9:58 AM 67.6 °F 48.6 °F 50% 29.96 in 10.0 mi WNW 9.2 mph - N/A   Scattered Clouds
10:58 AM 72.0 °F 45.9 °F 39% 29.96 in 10.0 mi West 8.1 mph - N/A   Partly Cloudy
11:58 AM 73.8 °F 41.7 °F 32% 29.96 in 10.0 mi Variable 6.9 mph - N/A   Partly Cloudy
12:58 PM 75.0 °F 42.1 °F 31% 29.95 in 10.0 mi West 8.1 mph - N/A   Partly Cloudy
1:58 PM 75.9 °F 40.5 °F 28% 29.95 in 10.0 mi West 9.2 mph 18.4 mph N/A   Partly Cloudy
2:58 PM 75.9 °F 40.5 °F 28% 29.94 in 10.0 mi Variable 1.2 mph - N/A   Partly Cloudy
3:58 PM 77.4 °F 43.3 °F 30% 29.93 in 10.0 mi WNW 9.2 mph 18.4 mph N/A   Partly Cloudy
4:58 PM 77.0 °F 42.6 °F 29% 29.92 in 10.0 mi West 10.4 mph - N/A   Clear
5:58 PM 77.0 °F 42.1 °F 29% 29.92 in 10.0 mi West 9.2 mph - N/A   Clear
6:58 PM 75.6 °F 42.4 °F 31% 29.92 in 10.0 mi West 9.2 mph - N/A   Clear
7:58 PM 71.4 °F 45.1 °F 39% 29.94 in 10.0 mi West 5.8 mph - N/A   Clear
8:58 PM 64.6 °F 46.6 °F 52% 29.96 in 10.0 mi Calm Calm - N/A   Clear
9:58 PM 60.4 °F 48.0 °F 64% 29.98 in 10.0 mi Calm Calm - N/A   Clear
10:58 PM 56.1 °F 48.6 °F 76% 29.99 in 10.0 mi Calm Calm - N/A   Clear
11:58 PM 54.1 °F 48.6 °F 81% 30.00 in 10.0 mi Calm Calm - N/A   Clear